AirNav   TITAN Aviation Fuels
 
 817 users online  

TE67 Cibolo Sea-Willo Airpark
New Berlin, Texas, USA

GOING TO NEW BERLIN?


FAA INFORMATION EFFECTIVE 15 JULY 2021

Location

FAA Identifier: TE67
Lat/Long: 29-25-44.8400N 098-07-54.0200W
29-25.747333N 098-07.900333W
29.4291222,-98.1316722
(estimated)
Elevation: 517 ft. / 158 m (estimated)
Variation: 07E (1995)
From city: 4 miles SW of NEW BERLIN, TX
Time zone: UTC -5 (UTC -6 during Standard Time)
Zip code: 78121

Airport Operations

Airport use: Private use. Permission required prior to landing
Activation date: 06/2000
Control tower: no
ARTCC: HOUSTON CENTER
FSS: SAN ANGELO FLIGHT SERVICE STATION
Attendance: UNATNDD
Wind indicator: yes
Segmented circle: no

Airport Communications

WX ASOS at BAZ (17 nm N): 119.325 (830-629-7979)
WX ASOS at SSF (19 nm W): PHONE 210-927-9391
WX ASOS at SAT (19 nm W): PHONE 210-805-5583

Nearby radio navigation aids

VOR radial/distance  VOR name  Freq  Var
RNDr119/9.7RANDOLPH VORTAC112.3005E
SSFr049/(19.3)STINSON VOR108.4009E
SATr119/21.5SAN ANTONIO VORTAC116.8008E

Airport Services

Runway Information

Runway 16/34

Dimensions: 2500 x 40 ft. / 762 x 12 m
Surface: asphalt
RUNWAY 16  RUNWAY 34
Traffic pattern: leftleft
Obstructions: 45 ft. trees, 500 ft. from runway30 ft. pole, 10 ft. from runway

Airport Ownership and Management from official FAA records

Ownership: Privately-owned
Owner: JOHN L. BOHANNON
9015 FM 775
SEGUIN, TX 78155
Phone 830-914-3288
Manager: LEONARD BOHANNON
334 CHURCH RD
SEGUIN, TX 78155
Phone (830) 556-6362

Additional Remarks

FOR CD CTC SAN ANTONIO APCH AT 210-805-5516.

Instrument Procedures

There are no published instrument procedures at TE67.

Some nearby airports with instrument procedures:

KRND - Randolph Air Force Base (10 nm NW)
KBAZ - New Braunfels Regional Airport (17 nm N)
KSSF - Stinson Municipal Airport (19 nm W)
KSAT - San Antonio International Airport (19 nm W)
KSKF - Kelly Field Airport (24 nm W)
 
Loc | Ops | Rwys | IFR | FBO | Links
Com | Nav | Svcs | Stats | Notes
Area around TE67 (Cibolo Sea-Willo Airpark)
 
Road maps at: MapQuest Bing Google
 
Aerial photo
WARNING: Photo may not be current or correct
Aerial photo of TE67 (Cibolo Sea-Willo Airpark)
Do you have a better or more recent aerial photo of Cibolo Sea-Willo Airpark that you would like to share? If so, please send us your photo.

 
Sectional chart

 
Airport distance calculator
Flying to Cibolo Sea-Willo Airpark? Find the distance to fly.

From to TE67

Sunrise and sunset
Times for 29-Jul-2021
 Local
(UTC-5)
 Zulu
(UTC)
Morning civil twilight06:2611:26
Sunrise06:5211:52
Sunset20:2601:26
Evening civil twilight20:5201:52

Current date and time
Zulu (UTC)  30-Jul-2021 03:56:43
Local (UTC-5)  29-Jul-2021 22:56:43
 
METAR
KRND 
9nm NW 
300256Z AUTO 36005KT 10SM CLR 25/22 A3003 RMK AO2 SLP161 T02510216 53016
KSEQ 
14nm NE 
300258Z AUTO 00000KT 10SM OVC260 24/23 A3007 RMK AO2 SLP178 T02370226 53018
KBAZ 
18nm N 
300251Z AUTO 00000KT 10SM CLR 24/23 A3002 RMK AO2 SLP158 T02390228 53017
KSSF 
18nm W 
300253Z AUTO 07006KT 10SM CLR 29/22 A3001 RMK AO2 SLP150 T02890217 53019
KSAT 
19nm W 
300251Z 03003KT 10SM FEW100 FEW250 27/19 A3005 RMK AO2 SLP156 T02720194 53014
TAF
KRND 
9nm NW 
292135Z 2921/3022 13009KT 9999 VCTS SCT030CB QNH2997INS TEMPO 2922/3001 VRB12G23KT 3200 TSRA FEW015 BKN020CB OVC060 BECMG 3010/3011 VRB05KT 9999 NSW SCT010 QNH3002INS BECMG 3017/3018 VRB06KT 9999 FEW040 QNH3001INS TX34/2923Z TN24/3011Z LAST NO AMDS AFT 3000 NEXT 3010
KSSF 
18nm W 
300002Z 3000/3024 08006KT P6SM FEW045 SCT250 FM301000 VRB03KT P6SM SCT010 SCT250 FM301600 10007KT P6SM SCT050 SCT250
KSAT 
19nm W 
292225Z 2922/3024 12012KT P6SM VCTS SCT050CB BKN250 TEMPO 2923/3001 08015G25KT 5SM -TSRA BR SCT010 BKN035CB FM300200 12006KT P6SM FEW040 SCT250 FM301000 VRB03KT P6SM SCT010 SCT250 FM301600 12008KT P6SM FEW050 SCT250
NOTAMs
Click for the latest NOTAMs
NOTAMs are issued by the DoD/FAA and will open in a separate window not controlled by AirNav.

 

 
 

Would you like to see your business listed on this page?

 If your business provides an interesting product or service to pilots, flight crews, aircraft, or users of the Cibolo Sea-Willo Airpark, you should consider listing it here.  To start the listing process, click on the button below
 
Add a business
 

Other Pages about Cibolo Sea-Willo Airpark

Update a link
 
Copyright © AirNav, LLC. All rights reserved. Privacy Policy  Contact